QPF
0.00 0.00 0.00 0.00 0.00 0.00 0.00 0.00 0.00 0.00 0.00 0.00 0.00 0.00 0.00 0.00 0.00 0.00 0.00 0.00 0.00 0.00 0.00 0.00 0.00 0.00 0.00 0.00 0.00 0.00 0.00 0.00 0.00 0.00 0.01 0.05 0.02 0.00 0.00 0.00 0.00 0.00 0.01 0.00 0.02
0.00 0.00 0.00 0.00 0.00 0.00 0.00 0.00 0.00 0.00 0.00 0.00 0.00 0.00 0.00 0.00 0.00 0.00 0.00 0.00 0.00 0.00 0.00 0.00 0.00 0.00 0.00 0.00 0.00 0.00 0.00 0.00 0.00 0.00 0.01 0.01 0.00 0.00 0.00 0.00 0.00 0.01 0.00 0.00 0.01
0.00 0.00 0.00 0.00 0.00 0.00 0.00 0.00 0.00 0.00 0.00 0.00 0.00 0.00 0.00 0.00 0.00 0.00 0.00 0.00 0.00 0.00 0.00 0.00 0.00 0.00 0.00 0.00 0.00 0.00 0.00 0.00 0.00 0.00 0.00 0.00 0.00 0.01 0.01 0.01 0.00 0.02 0.03 0.01 0.04
0.00 0.00 0.00 0.00 0.00 0.00 0.00 0.00 0.00 0.00 0.00 0.00 0.00 0.00 0.00 0.00 0.00 0.00 0.00 0.00 0.00 0.00 0.00 0.00 0.00 0.00 0.00 0.00 0.00 0.00 0.00 0.00 0.00 0.00 0.00 0.00 0.01 0.03 0.01 0.00 0.00 0.03 0.00 0.00 0.01
0.00 0.00 0.00 0.00 0.00 0.00 0.00 0.00 0.00 0.00 0.00 0.00 0.00 0.00 0.00 0.00 0.00 0.00 0.00 0.00 0.00 0.00 0.00 0.00 0.00 0.00 0.00 0.00 0.00 0.00 0.00 0.00 0.00 0.00 0.00 0.00 0.01 0.01 0.00 0.00 0.04 0.03 0.00 0.00 0.00
0.00 0.00 0.00 0.00 0.00 0.00 0.00 0.00 0.00 0.00 0.00 0.00 0.00 0.00 0.00 0.00 0.00 0.00 0.00 0.00 0.00 0.00 0.00 0.00 0.00 0.00 0.00 0.00 0.00 0.00 0.00 0.00 0.00 0.00 0.00 0.00 0.00 0.00 0.00 0.00 0.00 0.00 0.00 0.00 0.00
0.00 0.00 0.00 0.00 0.00 0.00 0.00 0.00 0.00 0.00 0.00 0.00 0.00 0.00 0.00 0.00 0.00 0.00 0.00 0.00 0.00 0.00 0.00 0.00 0.00 0.00 0.00 0.00 0.00 0.00 0.00 0.00 0.00 0.00 0.00 0.00 0.01 0.00 0.00 0.00 0.00 0.00 0.00 0.00 0.00
0.00 0.00 0.00 0.00 0.00 0.00 0.00 0.00 0.00 0.00 0.00 0.00 0.00 0.00 0.00 0.00 0.00 0.00 0.00 0.00 0.00 0.00 0.00 0.00 0.00 0.00 0.00 0.00 0.00 0.00 0.00 0.00 0.00 0.00 0.00 0.00 0.00 0.00 0.00 0.00 0.00 0.00 0.00 0.00 0.00
0.00 0.00 0.00 0.00 0.00 0.00 0.00 0.00 0.00 0.00 0.00 0.00 0.00 0.00 0.00 0.00 0.00 0.00 0.00 0.00 0.00 0.00 0.00 0.00 0.00 0.00 0.00 0.00 0.00 0.00 0.00 0.00 0.00 0.00 0.00 0.00 0.00 0.00 0.00 0.00 0.00 0.00 0.00 0.00 0.00
0.00 0.00 0.00 0.00 0.00 0.00 0.00 0.00 0.00 0.00 0.00 0.00 0.00 0.00 0.00 0.00 0.00 0.00 0.00 0.00 0.00 0.00 0.00 0.00 0.00 0.00 0.00 0.00 0.00 0.00 0.00 0.00 0.00 0.00 0.00 0.00 0.00 0.00 0.00 0.00 0.00 0.00 0.00 0.00 0.00
0.00 0.00 0.00 0.00 0.00 0.00 0.00 0.00 0.00 0.00 0.00 0.00 0.00 0.00 0.00 0.00 0.00 0.00 0.00 0.00 0.00 0.00 0.00 0.00 0.00 0.00 0.00 0.00 0.00 0.00 0.00 0.00 0.00 0.00 0.00 0.00 0.00 0.00 0.00 0.00 0.00 0.00 0.00 0.00 0.00
0.00 0.00 0.00 0.00 0.00 0.00 0.00 0.00 0.00 0.00 0.00 0.00 0.00 0.00 0.00 0.00 0.00 0.00 0.00 0.00 0.00 0.00 0.00 0.00 0.00 0.00 0.00 0.00 0.00 0.00 0.00 0.00 0.00 0.00 0.00 0.00 0.00 0.00 0.00 0.00 0.00 0.00 0.00 0.00 0.00
0.00 0.00 0.00 0.00 0.00 0.00 0.00 0.00 0.00 0.00 0.00 0.00 0.00 0.00 0.00 0.00 0.00 0.00 0.00 0.00 0.00 0.00 0.00 0.00 0.00 0.00 0.00 0.00 0.00 0.00 0.00 0.00 0.00 0.00 0.00 0.00 0.00 0.00 0.00 0.00 0.00 0.00 0.00 0.00 0.00
0.00 0.00 0.00 0.00 0.00 0.00 0.00 0.00 0.00 0.00 0.00 0.00 0.00 0.00 0.00 0.00 0.00 0.00 0.00 0.00 0.00 0.00 0.00 0.00 0.00 0.00 0.00 0.00 0.00 0.00 0.00 0.00 0.00 0.00 0.00 0.00 0.00 0.00 0.00 0.00 0.00 0.00 0.00 0.00 0.00
0.00 0.00 0.00 0.00 0.00 0.00 0.00 0.00 0.00 0.00 0.00 0.00 0.00 0.00 0.00 0.00 0.00 0.00 0.00 0.00 0.00 0.00 0.00 0.00 0.00 0.00 0.00 0.00 0.00 0.00 0.00 0.00 0.00 0.00 0.00 0.00 0.00 0.00 0.00 0.00 0.00 0.00 0.00 0.00 0.00
0.00 0.00 0.00 0.00 0.00 0.00 0.00 0.00 0.00 0.00 0.00 0.00 0.00 0.00 0.00 0.00 0.00 0.00 0.00 0.00 0.00 0.00 0.00 0.00 0.01 0.00 0.00 0.00 0.00 0.00 0.00 0.00 0.00 0.00 0.00 0.00 0.00 0.00 0.00 0.01 0.00 0.00 0.00 0.00 0.00
0.00 0.00 0.00 0.00 0.00 0.00 0.00 0.01 0.01 0.00 0.00 0.00 0.00 0.00 0.00 0.00 0.00 0.00 0.00 0.00 0.00 0.00 0.00 0.00 0.00 0.00 0.00 0.00 0.00 0.00 0.00 0.00 0.01 0.00 0.00 0.00 0.00 0.00 0.00 0.00 0.00 0.00 0.00 0.00 0.00
0.00 0.00 0.00 0.00 0.00 0.00 0.00 0.03 0.00 0.00 0.00 0.00 0.00 0.00 0.00 0.00 0.00 0.00 0.00 0.00 0.00 0.00 0.00 0.00 0.00 0.00 0.00 0.00 0.00 0.00 0.00 0.00 0.01 0.00 0.00 0.00 0.00 0.00 0.00 0.00 0.00 0.00 0.00 0.00 0.00
0.00 0.00 0.00 0.00 0.00 0.00 0.01 0.02 0.00 0.00 0.00 0.00 0.00 0.00 0.00 0.00 0.00 0.00 0.00 0.00 0.00 0.00 0.00 0.00 0.00 0.00 0.00 0.00 0.00 0.00 0.00 0.00 0.00 0.00 0.00 0.00 0.00 0.00 0.00 0.00 0.00 0.00 0.00 0.00 0.00
0.00 0.00 0.00 0.00 0.00 0.00 0.01 0.00 0.00 0.00 0.00 0.00 0.00 0.00 0.00 0.00 0.00 0.00 0.00 0.00 0.00 0.00 0.00 0.00 0.00 0.00 0.00 0.00 0.00 0.00 0.00 0.00 0.00 0.00 0.00 0.00 0.00 0.00 0.00 0.00 0.00 0.00 0.00 0.00 0.00
0.00 0.00 0.00 0.00 0.00 0.00 0.01 0.00 0.00 0.00 0.00 0.00 0.00 0.00 0.00 0.00 0.00 0.00 0.00 0.00 0.00 0.00 0.00 0.00 0.00 0.00 0.00 0.00 0.00 0.00 0.00 0.00 0.00 0.00 0.00 0.00 0.00 0.00 0.00 0.00 0.00 0.00 0.00 0.00 0.00
0.00 0.01 0.01 0.00 0.00 0.00 0.00 0.00 0.00 0.00 0.00 0.00 0.00 0.00 0.00 0.00 0.00 0.00 0.00 0.00 0.00 0.00 0.00 0.00 0.00 0.00 0.00 0.00 0.00 0.00 0.00 0.00 0.00 0.00 0.00 0.00 0.00 0.00 0.00 0.00 0.00 0.00 0.00 0.00 0.00
0.00 0.05 0.10 0.01 0.00 0.00 0.00 0.00 0.00 0.00 0.00 0.00 0.00 0.00 0.00 0.00 0.00 0.00 0.00 0.00 0.00 0.00 0.00 0.00 0.00 0.00 0.00 0.00 0.00 0.00 0.00 0.00 0.00 0.00 0.00 0.00 0.00 0.00 0.00 0.00 0.00 0.00 0.00 0.00 0.00
0.01 0.07 0.08 0.04 0.00 0.00 0.00 0.00 0.00 0.00 0.00 0.00 0.00 0.00 0.00 0.00 0.00 0.00 0.00 0.00 0.00 0.00 0.00 0.00 0.00 0.00 0.00 0.00 0.00 0.00 0.00 0.00 0.00 0.00 0.00 0.00 0.00 0.00 0.00 0.00 0.00 0.00 0.00 0.00 0.00
0.03 0.01 0.01 0.01 0.00 0.00 0.00 0.00 0.00 0.00 0.00 0.00 0.00 0.00 0.00 0.00 0.00 0.00 0.00 0.00 0.00 0.00 0.00 0.00 0.00 0.00 0.00 0.00 0.00 0.00 0.00 0.00 0.00 0.00 0.00 0.00 0.00 0.00 0.00 0.00 0.00 0.00 0.00 0.00 0.00
0.02 0.00 0.00 0.00 0.00 0.00 0.00 0.00 0.00 0.00 0.00 0.00 0.00 0.00 0.00 0.00 0.00 0.00 0.00 0.00 0.00 0.00 0.00 0.00 0.00 0.00 0.00 0.00 0.00 0.00 0.00 0.00 0.00 0.00 0.00 0.00 0.00 0.00 0.00 0.00 0.00 0.00 0.00 0.00 0.00
0.00 0.01 0.03 0.00 0.00 0.01 0.00 0.00 0.00 0.00 0.00 0.00 0.00 0.00 0.00 0.00 0.00 0.00 0.00 0.00 0.00 0.00 0.00 0.00 0.00 0.00 0.00 0.00 0.00 0.00 0.00 0.00 0.00 0.00 0.00 0.00 0.00 0.00 0.00 0.00 0.00 0.00 0.00 0.00 0.00
MSLP
1019.70 1019.53 1019.43 1019.25 1019.10 1018.86 1018.48 1018.27 1018.14 1017.71 1017.31 1017.03 1016.66 1016.26 1015.72 1015.41 1014.98 1013.68 1012.01 1009.84 1009.63 1009.80 1010.07 1009.44 1008.35 1008.17 1007.89 1007.44 1006.64 1006.02 1005.94 1005.28 1005.45 1007.00 1009.51 1009.80 1011.09 1011.12 1008.82 1008.88 1009.29 1008.67 1009.63 1009.52 1011.93
1019.54 1019.34 1019.23 1019.06 1018.83 1018.67 1018.46 1018.11 1017.74 1017.44 1017.19 1016.93 1016.51 1016.13 1015.67 1015.40 1014.54 1011.74 1009.24 1009.09 1009.20 1009.73 1009.78 1009.05 1007.80 1007.31 1007.10 1006.76 1006.30 1005.90 1005.47 1005.35 1006.61 1008.10 1009.66 1009.96 1010.97 1011.59 1008.80 1008.85 1008.76 1008.93 1009.61 1010.61 1012.30
1019.41 1019.26 1019.10 1018.85 1018.72 1018.50 1018.34 1018.04 1017.56 1017.27 1017.03 1016.79 1016.23 1015.75 1015.59 1015.28 1013.05 1009.06 1008.48 1008.50 1008.87 1009.44 1009.45 1008.48 1007.49 1006.92 1006.60 1006.12 1005.57 1005.32 1005.11 1004.98 1007.02 1008.15 1008.89 1009.31 1010.50 1009.86 1009.07 1009.31 1008.98 1009.32 1010.13 1011.21 1011.67
1019.24 1019.22 1019.06 1018.85 1018.53 1018.38 1018.13 1017.92 1017.39 1017.09 1016.86 1016.69 1016.07 1015.76 1015.43 1014.74 1010.91 1008.61 1008.58 1008.52 1008.94 1008.99 1009.07 1008.07 1007.22 1006.76 1006.36 1005.57 1005.14 1005.11 1004.71 1005.06 1006.45 1007.91 1008.73 1010.13 1012.13 1011.83 1010.02 1009.61 1008.47 1009.71 1009.55 1010.34 1011.06
1019.07 1019.00 1018.83 1018.77 1018.51 1018.23 1017.87 1017.61 1017.33 1016.96 1016.76 1016.63 1016.13 1015.79 1014.99 1012.97 1009.34 1007.95 1008.26 1008.73 1008.93 1009.09 1008.45 1007.45 1006.89 1006.40 1005.77 1005.15 1004.88 1004.84 1004.82 1005.37 1005.62 1007.11 1007.70 1009.13 1010.16 1010.74 1009.39 1007.30 1009.25 1009.56 1008.97 1009.33 1010.57
1018.78 1018.71 1018.65 1018.42 1018.39 1018.10 1017.72 1017.31 1017.18 1016.77 1016.68 1016.46 1016.15 1015.88 1014.81 1011.43 1007.18 1007.12 1007.43 1008.27 1007.94 1008.35 1007.87 1007.19 1006.54 1006.15 1005.75 1005.29 1004.83 1004.67 1004.99 1005.50 1006.21 1006.67 1007.75 1009.56 1010.62 1011.42 1008.31 1007.70 1008.14 1008.42 1008.74 1009.28 1009.90
1018.49 1018.43 1018.45 1018.25 1018.13 1017.85 1017.57 1017.15 1016.83 1016.54 1016.50 1016.27 1016.04 1015.46 1013.41 1010.07 1007.32 1006.93 1007.32 1007.29 1007.03 1007.11 1007.23 1006.60 1006.50 1006.36 1005.91 1005.70 1005.37 1005.40 1006.02 1006.27 1006.61 1006.89 1007.66 1008.97 1011.15 1009.74 1007.86 1007.87 1008.35 1008.35 1008.56 1009.07 1009.61
1018.15 1018.11 1018.11 1017.95 1017.87 1017.62 1017.26 1016.86 1016.51 1016.35 1016.14 1016.10 1015.79 1014.97 1011.41 1008.08 1007.52 1007.29 1006.96 1006.73 1006.46 1006.46 1006.76 1006.56 1006.54 1006.55 1006.51 1006.72 1006.19 1005.99 1006.66 1006.72 1006.02 1006.58 1007.03 1007.86 1009.33 1007.93 1007.37 1007.82 1008.17 1008.46 1008.84 1009.39 1010.04
1017.83 1017.81 1017.79 1017.77 1017.66 1017.39 1016.89 1016.53 1016.18 1016.05 1015.85 1015.84 1015.17 1013.81 1009.64 1007.37 1007.23 1006.46 1006.44 1005.94 1005.88 1006.38 1006.62 1006.86 1007.13 1007.00 1007.04 1007.08 1006.84 1007.14 1007.04 1006.64 1005.91 1005.97 1006.29 1007.23 1006.83 1006.81 1006.96 1007.41 1007.96 1008.49 1009.07 1009.61 1010.24
1017.57 1017.51 1017.50 1017.45 1017.47 1017.13 1016.68 1016.34 1015.60 1015.83 1015.32 1014.70 1013.55 1012.46 1009.04 1006.81 1005.68 1005.60 1005.34 1005.78 1006.01 1006.30 1006.82 1007.13 1007.13 1007.07 1006.84 1007.19 1006.86 1006.49 1006.27 1005.79 1005.25 1005.34 1005.51 1005.80 1005.82 1006.27 1006.66 1006.95 1007.73 1008.25 1008.90 1009.51 1010.33
1017.20 1017.22 1017.21 1017.21 1017.14 1016.88 1016.48 1015.72 1015.33 1014.58 1013.67 1011.33 1009.76 1008.76 1006.82 1006.19 1006.01 1005.70 1005.26 1005.58 1005.79 1006.21 1006.34 1006.83 1006.93 1006.86 1006.65 1006.28 1006.13 1005.83 1005.63 1005.39 1004.80 1004.80 1004.88 1004.99 1005.47 1005.94 1006.28 1006.60 1007.16 1007.97 1008.76 1009.40 1010.16
1016.78 1016.93 1016.97 1016.98 1017.00 1016.80 1016.48 1014.68 1012.01 1011.96 1010.89 1009.25 1008.75 1007.96 1007.10 1006.83 1005.87 1004.96 1004.78 1005.39 1005.46 1005.78 1006.83 1007.30 1007.31 1007.08 1006.63 1006.43 1005.84 1005.23 1005.25 1004.97 1004.60 1004.79 1004.94 1004.79 1004.99 1005.47 1005.93 1006.28 1006.60 1007.38 1008.32 1009.13 1010.06
1016.25 1016.64 1016.70 1016.72 1016.85 1016.55 1015.09 1013.61 1012.10 1011.82 1010.51 1007.57 1006.88 1006.93 1006.45 1006.28 1005.51 1004.40 1004.73 1004.99 1005.34 1006.40 1006.91 1007.80 1009.01 1008.37 1007.12 1006.02 1005.38 1004.91 1006.10 1005.71 1006.09 1005.58 1005.19 1005.04 1005.14 1005.39 1005.99 1006.36 1006.46 1006.82 1007.53 1008.48 1009.33
1015.74 1016.19 1016.49 1016.75 1017.10 1014.35 1013.40 1012.48 1012.61 1012.71 1010.46 1006.45 1005.60 1005.52 1005.68 1005.66 1005.06 1004.12 1003.97 1004.68 1005.05 1006.29 1007.70 1008.71 1008.38 1008.15 1006.36 1005.47 1005.08 1005.93 1006.86 1006.50 1006.80 1006.87 1006.10 1006.71 1006.69 1005.91 1005.97 1006.19 1006.17 1006.34 1006.85 1007.62 1008.63
1015.44 1015.79 1016.11 1016.30 1015.58 1013.28 1012.05 1011.34 1011.83 1012.35 1009.23 1004.47 1004.60 1004.21 1004.77 1005.09 1003.80 1004.03 1003.96 1004.33 1004.92 1005.62 1007.03 1008.90 1008.32 1007.33 1006.02 1005.50 1005.49 1006.89 1006.78 1006.78 1006.16 1006.19 1006.78 1007.29 1008.04 1007.14 1006.72 1005.33 1005.40 1006.24 1006.76 1007.34 1008.20
1014.93 1015.48 1015.99 1016.03 1015.72 1013.64 1013.05 1012.59 1012.15 1011.24 1007.42 1004.78 1003.93 1004.06 1004.34 1004.59 1004.12 1003.62 1004.22 1004.68 1004.58 1005.57 1006.09 1007.43 1007.85 1006.82 1005.55 1005.63 1005.51 1006.31 1006.85 1006.49 1006.59 1007.00 1007.07 1007.05 1007.56 1007.05 1006.73 1006.59 1005.77 1006.85 1007.25 1007.60 1008.49
1014.39 1014.92 1015.57 1013.86 1013.19 1012.50 1013.21 1012.88 1011.77 1008.78 1005.26 1004.12 1003.80 1004.30 1004.34 1004.20 1004.17 1004.07 1004.22 1004.53 1004.75 1005.27 1005.51 1006.38 1006.26 1005.56 1005.61 1005.28 1005.48 1006.04 1006.35 1007.05 1009.57 1009.03 1006.61 1005.43 1005.78 1004.33 1005.25 1005.27 1005.40 1006.11 1007.28 1007.94 1008.78
1014.10 1014.79 1014.77 1013.97 1013.06 1012.96 1012.75 1012.62 1009.75 1006.35 1005.02 1003.48 1003.67 1003.99 1004.10 1003.84 1004.02 1004.09 1004.14 1004.06 1004.52 1004.70 1004.88 1006.11 1006.56 1006.02 1005.46 1005.42 1006.52 1007.20 1006.85 1008.80 1009.13 1008.31 1006.96 1006.39 1005.04 1004.82 1004.90 1005.24 1005.19 1006.06 1007.21 1008.22 1009.23
1014.12 1014.61 1014.02 1013.42 1013.63 1013.14 1012.56 1010.86 1007.70 1005.19 1003.83 1003.32 1003.54 1003.51 1003.61 1003.57 1003.65 1003.93 1003.96 1003.77 1003.88 1004.40 1004.91 1005.93 1006.98 1007.31 1005.91 1005.28 1006.13 1006.49 1006.24 1006.78 1007.40 1007.91 1007.52 1006.42 1005.16 1005.11 1005.12 1005.38 1005.75 1006.33 1007.32 1008.42 1009.35
1013.29 1013.25 1012.27 1012.47 1013.11 1013.22 1011.96 1009.18 1006.87 1004.84 1003.37 1002.96 1003.07 1003.17 1003.08 1003.17 1003.48 1003.55 1003.58 1003.45 1003.30 1003.61 1004.63 1006.44 1007.87 1008.42 1006.52 1005.97 1005.68 1005.82 1006.07 1006.43 1007.00 1007.64 1007.38 1005.86 1004.60 1004.67 1005.28 1005.39 1006.00 1006.37 1007.35 1008.35 1009.34
1012.44 1011.77 1009.61 1011.25 1012.83 1012.36 1009.39 1007.95 1006.86 1004.77 1003.69 1003.32 1003.01 1002.77 1002.76 1002.64 1002.99 1003.30 1003.32 1003.18 1003.30 1003.91 1004.67 1005.59 1007.44 1006.65 1006.15 1005.50 1004.88 1005.58 1005.86 1006.16 1006.66 1007.04 1007.44 1006.89 1005.76 1005.11 1005.04 1005.25 1005.97 1006.34 1007.03 1007.91 1008.87
1011.57 1009.98 1008.36 1010.42 1011.48 1009.96 1008.27 1007.24 1006.26 1004.86 1003.76 1003.43 1003.24 1002.70 1002.49 1002.38 1002.82 1003.21 1003.32 1003.07 1003.50 1004.15 1004.95 1005.43 1005.57 1005.45 1005.13 1004.71 1004.92 1005.12 1005.33 1005.60 1006.45 1007.36 1007.50 1007.41 1006.45 1005.51 1005.40 1005.46 1005.84 1006.20 1006.56 1007.37 1008.23
1010.09 1009.29 1008.98 1008.73 1008.43 1007.76 1007.86 1006.82 1005.62 1004.62 1003.73 1003.39 1003.46 1002.85 1002.43 1002.32 1002.54 1002.86 1003.19 1004.21 1004.10 1004.59 1005.37 1005.52 1005.75 1005.78 1005.37 1005.19 1005.14 1005.33 1005.43 1005.71 1006.20 1006.94 1007.42 1007.45 1006.36 1005.62 1005.60 1005.70 1005.83 1006.04 1006.35 1007.03 1007.75
1009.14 1008.51 1008.90 1008.51 1007.09 1006.85 1006.68 1005.82 1005.01 1004.34 1003.37 1002.88 1002.94 1002.76 1002.39 1002.37 1002.25 1002.98 1003.42 1004.78 1005.23 1005.40 1006.14 1006.21 1006.01 1006.05 1005.92 1005.37 1005.11 1004.86 1005.40 1005.44 1005.91 1006.77 1007.18 1006.88 1005.96 1005.05 1004.91 1005.18 1005.38 1005.89 1006.46 1006.73 1007.28
1007.71 1005.96 1005.69 1006.02 1006.24 1005.77 1005.64 1004.99 1004.24 1003.44 1003.14 1003.07 1002.46 1002.41 1002.33 1002.57 1002.50 1002.89 1003.49 1004.93 1005.61 1006.24 1006.52 1006.69 1006.62 1006.71 1006.24 1005.78 1005.47 1005.67 1005.42 1005.30 1005.57 1005.91 1006.22 1006.24 1005.54 1004.69 1004.29 1004.82 1004.95 1005.40 1006.04 1006.68 1007.13
1006.60 1004.46 1004.36 1004.28 1005.50 1005.45 1004.66 1003.64 1003.08 1002.54 1002.36 1002.67 1002.12 1002.20 1002.13 1002.49 1002.62 1002.80 1003.35 1004.43 1005.20 1006.41 1006.58 1006.81 1007.12 1007.43 1007.23 1006.98 1006.61 1006.43 1006.10 1005.72 1005.61 1005.61 1005.31 1005.21 1004.81 1004.57 1004.71 1005.15 1005.55 1006.05 1006.50 1006.73 1007.32
1005.49 1004.18 1004.38 1004.37 1004.06 1004.01 1002.23 1002.79 1002.33 1002.01 1001.99 1002.17 1002.04 1002.14 1002.37 1002.49 1002.35 1003.11 1002.89 1003.73 1004.47 1005.59 1006.39 1006.87 1007.78 1008.38 1008.79 1008.64 1008.16 1007.55 1006.32 1005.83 1005.58 1005.35 1005.24 1005.07 1005.03 1004.95 1005.00 1005.40 1006.07 1006.62 1006.97 1007.37 1007.86
Thickness
5656 5657 5656 5657 5657 5656 5659 5658 5655 5655 5655 5653 5650 5647 5648 5648 5648 5660 5663 5682 5684 5683 5680 5683 5690 5690 5695 5694 5708 5716 5687 5691 5708 5690 5672 5680 5663 5658 5701 5699 5698 5707 5686 5695 5686
5651 5653 5653 5654 5654 5654 5654 5655 5654 5654 5651 5650 5648 5645 5645 5644 5648 5665 5688 5688 5686 5681 5676 5675 5680 5690 5684 5689 5700 5696 5690 5697 5696 5686 5667 5674 5664 5653 5694 5692 5690 5693 5696 5692 5679
5646 5647 5649 5651 5650 5651 5651 5651 5652 5650 5649 5646 5645 5644 5642 5641 5652 5684 5692 5691 5687 5681 5678 5683 5690 5689 5681 5693 5700 5702 5692 5712 5691 5682 5682 5680 5666 5684 5687 5676 5687 5679 5677 5679 5682
5641 5642 5644 5646 5647 5648 5648 5647 5649 5647 5645 5642 5642 5639 5640 5642 5651 5689 5690 5690 5685 5682 5678 5681 5683 5677 5676 5682 5704 5690 5710 5714 5696 5685 5682 5666 5650 5646 5670 5673 5688 5680 5687 5685 5685
5636 5638 5640 5640 5642 5644 5645 5645 5645 5644 5642 5638 5638 5637 5642 5648 5663 5690 5690 5686 5682 5678 5676 5679 5677 5680 5677 5692 5701 5695 5702 5704 5710 5695 5699 5681 5668 5658 5664 5700 5681 5682 5695 5695 5687
5632 5634 5636 5638 5638 5639 5641 5644 5642 5642 5638 5636 5633 5633 5636 5641 5694 5694 5692 5686 5686 5678 5678 5683 5682 5689 5685 5689 5697 5704 5699 5695 5695 5696 5693 5665 5653 5645 5686 5704 5698 5698 5694 5694 5694
5628 5630 5631 5634 5635 5636 5637 5641 5641 5640 5636 5633 5631 5631 5639 5654 5690 5694 5691 5689 5693 5688 5677 5689 5690 5683 5689 5683 5699 5694 5674 5680 5682 5686 5681 5673 5635 5655 5695 5700 5692 5694 5695 5695 5695
5623 5626 5628 5631 5631 5633 5636 5638 5639 5637 5635 5630 5629 5631 5644 5684 5686 5687 5692 5690 5697 5697 5689 5692 5692 5683 5679 5683 5685 5679 5671 5655 5680 5682 5686 5675 5636 5682 5703 5695 5689 5690 5690 5687 5685
5619 5622 5625 5626 5627 5629 5634 5637 5638 5636 5633 5628 5631 5634 5650 5687 5677 5692 5693 5686 5693 5692 5691 5689 5682 5673 5675 5661 5659 5661 5646 5655 5676 5691 5687 5676 5669 5694 5703 5696 5687 5686 5684 5682 5681
5613 5617 5620 5622 5623 5626 5631 5633 5638 5634 5633 5632 5639 5633 5660 5669 5691 5696 5702 5694 5684 5683 5676 5672 5671 5663 5667 5655 5635 5651 5659 5673 5679 5696 5694 5688 5690 5695 5700 5697 5688 5687 5685 5682 5677
5608 5612 5616 5617 5620 5624 5627 5635 5640 5638 5638 5651 5661 5659 5675 5686 5693 5689 5698 5688 5687 5678 5663 5670 5658 5651 5664 5675 5678 5681 5679 5676 5694 5706 5698 5696 5690 5693 5700 5698 5690 5687 5683 5681 5677
5603 5607 5610 5613 5615 5619 5622 5634 5654 5651 5644 5665 5664 5666 5675 5677 5670 5688 5702 5676 5676 5666 5666 5659 5647 5666 5679 5680 5682 5689 5682 5686 5704 5706 5699 5700 5696 5700 5701 5699 5698 5692 5685 5681 5677
5600 5601 5605 5609 5610 5616 5627 5636 5650 5650 5642 5666 5675 5667 5670 5675 5670 5685 5692 5683 5673 5658 5660 5646 5631 5652 5668 5681 5684 5695 5668 5671 5671 5689 5702 5701 5692 5692 5698 5698 5701 5701 5696 5690 5683
5597 5597 5599 5602 5603 5627 5630 5643 5641 5638 5628 5662 5669 5672 5675 5675 5666 5697 5703 5687 5678 5659 5652 5636 5651 5650 5670 5683 5696 5663 5673 5681 5671 5659 5665 5681 5647 5677 5688 5689 5695 5697 5697 5693 5688
5589 5592 5594 5598 5607 5625 5639 5646 5642 5632 5611 5682 5674 5696 5681 5668 5683 5682 5703 5690 5670 5668 5659 5632 5648 5657 5674 5683 5689 5660 5675 5675 5693 5688 5675 5660 5641 5661 5674 5688 5694 5694 5696 5694 5689
5582 5584 5586 5592 5595 5616 5622 5630 5630 5612 5612 5661 5680 5669 5664 5669 5675 5687 5682 5691 5692 5671 5674 5651 5659 5666 5680 5688 5692 5685 5677 5688 5688 5678 5652 5654 5650 5650 5661 5666 5682 5686 5689 5690 5684
5576 5578 5580 5596 5603 5618 5615 5616 5605 5611 5673 5663 5664 5665 5659 5660 5664 5671 5666 5664 5659 5649 5655 5663 5670 5689 5691 5682 5691 5684 5675 5649 5602 5612 5650 5700 5678 5694 5672 5692 5685 5686 5685 5684 5678
5566 5569 5576 5586 5600 5604 5609 5599 5605 5647 5652 5680 5670 5664 5651 5665 5663 5665 5661 5659 5672 5672 5668 5645 5640 5677 5691 5682 5649 5653 5667 5618 5613 5624 5652 5675 5673 5684 5699 5703 5706 5696 5687 5679 5670
5554 5560 5572 5582 5586 5594 5595 5594 5622 5653 5670 5667 5664 5653 5653 5664 5666 5661 5660 5663 5675 5678 5660 5651 5645 5656 5679 5690 5673 5656 5664 5678 5657 5648 5641 5665 5686 5690 5696 5692 5692 5688 5682 5672 5667
5552 5560 5575 5577 5579 5581 5587 5605 5630 5661 5672 5671 5649 5660 5649 5658 5657 5659 5660 5676 5677 5690 5683 5652 5616 5628 5665 5680 5683 5674 5683 5655 5658 5626 5626 5664 5680 5664 5675 5681 5682 5682 5676 5671 5666
5545 5556 5583 5574 5568 5574 5597 5612 5627 5659 5665 5655 5654 5656 5660 5662 5664 5658 5662 5678 5685 5679 5679 5662 5628 5647 5665 5664 5669 5664 5660 5666 5667 5660 5630 5630 5656 5686 5683 5685 5677 5679 5677 5672 5665
5541 5556 5580 5569 5563 5587 5602 5618 5631 5645 5657 5656 5657 5661 5661 5668 5659 5658 5659 5674 5686 5681 5662 5674 5666 5650 5661 5683 5686 5677 5669 5671 5638 5637 5643 5636 5643 5687 5685 5683 5681 5678 5679 5674 5668
5542 5554 5562 5572 5575 5590 5600 5612 5629 5637 5644 5648 5643 5659 5669 5663 5656 5665 5671 5668 5678 5674 5665 5670 5655 5633 5646 5665 5673 5661 5668 5669 5666 5653 5636 5618 5643 5683 5680 5676 5677 5675 5676 5672 5665
5536 5539 5545 5562 5593 5593 5595 5607 5617 5637 5644 5654 5650 5659 5660 5656 5670 5658 5662 5658 5664 5666 5649 5659 5657 5645 5630 5650 5665 5659 5659 5666 5660 5625 5632 5635 5655 5674 5675 5669 5672 5672 5671 5668 5661
5526 5557 5572 5572 5579 5594 5600 5610 5615 5624 5641 5647 5648 5651 5653 5643 5653 5653 5663 5650 5654 5640 5652 5652 5637 5647 5655 5661 5663 5656 5657 5662 5654 5656 5636 5648 5654 5673 5683 5670 5670 5669 5666 5660 5657
5528 5561 5578 5589 5582 5585 5596 5611 5618 5631 5637 5634 5642 5652 5657 5646 5653 5650 5657 5650 5646 5645 5645 5650 5633 5635 5635 5647 5649 5639 5648 5654 5656 5657 5659 5660 5658 5680 5675 5668 5664 5658 5656 5650 5644
5535 5559 5566 5575 5583 5585 5611 5611 5621 5634 5640 5645 5650 5650 5648 5657 5667 5662 5673 5667 5663 5647 5638 5639 5627 5618 5610 5623 5619 5606 5635 5643 5650 5659 5656 5641 5658 5669 5663 5657 5652 5650 5645 5638 5634